TimeHST,TemperatureF,Dew PointF,Humidity,Sea Level PressureIn,VisibilityMPH,Wind Direction,Wind SpeedMPH,Gust SpeedMPH,PrecipitationIn,Events,Conditions,WindDirDegrees,DateUTC
12:53 AM,72.0,62.1,71,30.20,10.0,East,8.1,-,0.00,,Scattered Clouds,80,2013-02-11 10:53:00
1:53 AM,73.0,62.1,68,30.19,10.0,NE,9.2,20.7,N/A,,Scattered Clouds,50,2013-02-11 11:53:00
2:53 AM,72.0,63.0,73,30.18,10.0,NE,5.8,-,N/A,,Mostly Cloudy,50,2013-02-11 12:53:00
3:53 AM,71.1,62.1,73,30.17,10.0,Calm,Calm,-,N/A,,Mostly Cloudy,0,2013-02-11 13:53:00
4:53 AM,72.0,62.1,71,30.16,10.0,Calm,Calm,-,N/A,,Mostly Cloudy,0,2013-02-11 14:53:00
5:53 AM,72.0,63.0,73,30.17,10.0,ENE,5.8,-,N/A,,Mostly Cloudy,60,2013-02-11 15:53:00
6:53 AM,71.1,63.0,75,30.19,10.0,NE,10.4,-,0.00,,Mostly Cloudy,40,2013-02-11 16:53:00
7:53 AM,72.0,63.0,73,30.20,10.0,NE,13.8,23.0,N/A,,Mostly Cloudy,40,2013-02-11 17:53:00
8:53 AM,73.0,64.9,76,30.21,10.0,NE,16.1,21.9,0.00,,Mostly Cloudy,40,2013-02-11 18:53:00
9:53 AM,73.0,64.0,73,30.22,10.0,ENE,6.9,-,0.00,,Mostly Cloudy,70,2013-02-11 19:53:00
10:53 AM,75.9,63.0,64,30.22,10.0,ENE,12.7,-,0.00,,Mostly Cloudy,60,2013-02-11 20:53:00
11:53 AM,78.1,63.0,60,30.20,10.0,NE,13.8,23.0,N/A,,Mostly Cloudy,40,2013-02-11 21:53:00
12:53 PM,78.1,64.0,62,30.19,10.0,NE,17.3,-,N/A,,Mostly Cloudy,40,2013-02-11 22:53:00
1:53 PM,77.0,63.0,62,30.16,10.0,NNE,19.6,26.5,0.00,,Scattered Clouds,30,2013-02-11 23:53:00
2:53 PM,75.9,63.0,64,30.14,10.0,NNE,9.2,18.4,N/A,,Scattered Clouds,30,2013-02-12 00:53:00
3:53 PM,75.9,62.1,62,30.14,10.0,NNE,11.5,19.6,N/A,,Scattered Clouds,30,2013-02-12 01:53:00
4:53 PM,75.0,62.1,64,30.14,10.0,NE,21.9,26.5,N/A,,Scattered Clouds,40,2013-02-12 02:53:00
5:53 PM,72.0,62.1,71,30.16,10.0,NNE,9.2,-,N/A,,Scattered Clouds,30,2013-02-12 03:53:00
6:53 PM,70.0,62.1,76,30.18,10.0,NNE,5.8,-,N/A,,Scattered Clouds,20,2013-02-12 04:53:00
7:53 PM,71.1,61.0,70,30.19,10.0,NNE,5.8,-,N/A,,Scattered Clouds,30,2013-02-12 05:53:00
8:53 PM,72.0,62.1,71,30.21,10.0,NNE,6.9,-,N/A,,Mostly Cloudy,30,2013-02-12 06:53:00
9:53 PM,71.1,61.0,70,30.22,10.0,NNE,5.8,-,N/A,,Scattered Clouds,20,2013-02-12 07:53:00
10:53 PM,72.0,60.1,66,30.22,10.0,NNE,11.5,20.7,N/A,,Scattered Clouds,30,2013-02-12 08:53:00
11:53 PM,72.0,60.1,66,30.21,10.0,NE,12.7,-,N/A,,Mostly Cloudy,50,2013-02-12 09:53:00